| time (UTC) | temp F | wind direction | speed knots | gust knots | rain 1hr in | rain 24hr in | rain mn in | humidity % | barometer mb |
| 20260503184657 | 55 | 286 | 6.1 | 7.8 | 0.00 | 0.00 | 0.00 | 44 | 1019.2 |
| 20260503184154 | 53 | 227 | 5.2 | 6.1 | 0.00 | 0.00 | 0.00 | 41 | 1019.3 |
| 20260503183649 | 55 | 229 | 5.2 | 7.0 | 0.00 | 0.00 | 0.00 | 43 | 1019.3 |
| 20260503183147 | 54 | 238 | 5.2 | 7.0 | 0.00 | 0.00 | 0.00 | 42 | 1019.5 |
| 20260503182645 | 53 | 232 | 7.0 | 7.8 | 0.00 | 0.00 | 0.00 | 41 | 1019.6 |
| 20260503182144 | 53 | 35 | 4.3 | 6.1 | 0.00 | 0.00 | 0.00 | 45 | 1019.3 |
| 20260503181640 | 53 | 218 | 0.9 | 0.9 | 0.00 | 0.00 | 0.00 | 41 | 1019.6 |
| 20260503181137 | 53 | 211 | 2.6 | 2.6 | 0.00 | 0.00 | 0.00 | 46 | 1019.4 |
| 20260503180634 | 54 | 253 | 7.8 | 9.6 | 0.00 | 0.00 | 0.00 | 40 | 1019.6 |
| 20260503180132 | 53 | 177 | 0.9 | 1.7 | 0.00 | 0.00 | 0.00 | 45 | 1019.6 |
| 20260503175629 | 51 | 315 | 5.2 | 7.8 | 0.00 | 0.00 | 0.00 | 45 | 1019.6 |
| 20260503175125 | 52 | 239 | 8.7 | 11.3 | 0.00 | 0.00 | 0.00 | 44 | 1019.9 |
| 20260503174622 | 53 | 255 | 2.6 | 2.6 | 0.00 | 0.00 | 0.00 | 41 | 1019.9 |
| 20260503174120 | 51 | 254 | 6.1 | 7.0 | 0.00 | 0.00 | 0.00 | 45 | 1020.0 |
| 20260503173614 | 52 | 293 | 4.3 | 5.2 | 0.00 | 0.00 | 0.00 | 44 | 1020.0 |
| 20260503173111 | 52 | 238 | 0.9 | 0.9 | 0.00 | 0.00 | 0.00 | 43 | 1020.0 |
| 20260503172608 | 52 | 314 | 7.0 | 8.7 | 0.00 | 0.00 | 0.00 | 45 | 1020.0 |
| 20260503172106 | 51 | 231 | 3.5 | 6.1 | 0.00 | 0.00 | 0.00 | 44 | 1019.9 |
| 20260503171601 | 51 | 177 | 3.5 | 5.2 | 0.00 | 0.00 | 0.00 | 47 | 1020.3 |
| 20260503171059 | 51 | 235 | 2.6 | 2.6 | 0.00 | 0.00 | 0.00 | 49 | 1020.1 |
| 20260503170555 | 51 | 241 | 2.6 | 4.3 | 0.00 | 0.00 | 0.00 | 48 | 1020.3 |
| 20260503150948 | 46 | 236 | 4.3 | 6.1 | 0.00 | 0.00 | 0.00 | 55 | 1021.2 |
| 20260503150444 | 46 | 213 | 1.7 | 2.6 | 0.00 | 0.00 | 0.00 | 54 | 1021.0 |
| 20260503131337 | 41 | 255 | 3.5 | 5.2 | 0.00 | 0.00 | 0.00 | 73 | 1021.2 |
| 20260503130835 | 41 | 240 | 3.5 | 5.2 | 0.00 | 0.00 | 0.00 | 73 | 1021.2 |
| 20260503130332 | 41 | 228 | 3.5 | 4.3 | 0.00 | 0.00 | 0.00 | 74 | 1021.2 |
| 20260503110726 | 34 | 195 | 0.9 | 0.9 | 0.00 | 0.00 | 0.00 | 91 | 1020.0 |
| 20260503110223 | 33 | 206 | 0.0 | 0.0 | 0.00 | 0.00 | 0.00 | 91 | 1020.3 |
| 20260503100149 | 34 | 219 | 0.0 | 0.0 | 0.00 | 0.00 | 0.00 | 90 | 1019.4 |
| 20260503090108 | 34 | 216 | 1.7 | 1.7 | 0.00 | 0.00 | 0.00 | 92 | 1019.3 |
| 20260503081544 | 34 | 223 | 0.0 | 0.9 | 0.00 | 0.00 | 0.00 | 92 | 1019.1 |
| 20260503081042 | 34 | 229 | 0.0 | 0.0 | 0.00 | 0.00 | 0.00 | 91 | 1019.3 |
| 20260503080537 | 34 | 240 | 0.0 | 0.0 | 0.00 | 0.00 | 0.00 | 91 | 1019.3 |
| 20260503072512 | 35 | 241 | 0.9 | 0.9 | 0.00 | 0.00 | 0.00 | 90 | 1018.9 |
| 20260503072008 | 35 | 241 | 0.0 | 0.9 | 0.00 | 0.00 | 0.00 | 90 | 1018.7 |
| 20260503071505 | 35 | 241 | 0.9 | 0.9 | 0.00 | 0.00 | 0.00 | 90 | 1018.7 |
| 20260503071001 | 35 | 241 | 0.0 | 0.9 | 0.00 | 0.00 | 0.00 | 90 | 1018.6 |
| 20260503070458 | 36 | 241 | 0.0 | 0.0 | 0.00 | 0.00 | 0.00 | 89 | 1018.8 |
| 20260503054917 | 37 | 241 | 0.0 | 0.9 | 0.00 | 0.00 | 0.00 | 87 | 1018.5 |
| 20260503054413 | 37 | 263 | 1.7 | 1.7 | 0.00 | 0.00 | 0.00 | 86 | 1018.6 |
| 20260503053911 | 37 | 241 | 0.9 | 0.9 | 0.00 | 0.00 | 0.00 | 86 | 1018.6 |
| 20260503053409 | 37 | 242 | 1.7 | 1.7 | 0.00 | 0.00 | 0.00 | 86 | 1018.7 |
| 20260503052905 | 37 | 241 | 0.9 | 0.9 | 0.00 | 0.00 | 0.00 | 86 | 1018.6 |
| 20260503052403 | 37 | 241 | 0.9 | 0.9 | 0.00 | 0.00 | 0.00 | 86 | 1018.7 |
| 20260503051858 | 37 | 241 | 0.0 | 0.9 | 0.00 | 0.00 | 0.00 | 86 | 1018.6 |
| 20260503051355 | 37 | 241 | 0.9 | 1.7 | 0.00 | 0.00 | 0.00 | 86 | 1018.7 |
| 20260503050852 | 37 | 241 | 0.0 | 0.0 | 0.00 | 0.00 | 0.00 | 86 | 1018.8 |
| 20260503050348 | 37 | 241 | 0.9 | 0.9 | 0.00 | 0.00 | 0.00 | 86 | 1018.7 |
| 20260503045846 | 37 | 241 | 0.0 | 0.0 | 0.00 | 0.00 | 0.00 | 85 | 1018.9 |
| 20260503045343 | 37 | 241 | 0.9 | 0.9 | 0.00 | 0.00 | 0.00 | 85 | 1019.1 |
| 20260503044839 | 38 | 243 | 0.9 | 1.7 | 0.00 | 0.00 | 0.00 | 85 | 1018.9 |
| 20260503044336 | 38 | 241 | 0.0 | 0.9 | 0.00 | 0.00 | 0.00 | 85 | 1018.8 |
| 20260503043833 | 38 | 241 | 0.9 | 0.9 | 0.00 | 0.00 | 0.00 | 85 | 1018.9 |
| 20260503043331 | 38 | 241 | 0.9 | 1.7 | 0.00 | 0.00 | 0.00 | 85 | 1018.7 |
| 20260503042827 | 38 | 241 | 0.9 | 0.9 | 0.00 | 0.00 | 0.00 | 85 | 1019.0 |
| 20260503042324 | 38 | 241 | 0.9 | 0.9 | 0.00 | 0.00 | 0.00 | 85 | 1018.8 |
| 20260503041819 | 38 | 241 | 0.9 | 0.9 | 0.00 | 0.00 | 0.00 | 84 | 1019.0 |
| 20260503041317 | 38 | 241 | 0.9 | 0.9 | 0.00 | 0.00 | 0.00 | 84 | 1018.7 |
| 20260503040815 | 38 | 242 | 0.9 | 1.7 | 0.00 | 0.00 | 0.00 | 84 | 1018.9 |
| 20260503040312 | 38 | 241 | 0.9 | 0.9 | 0.00 | 0.00 | 0.00 | 83 | 1018.8 |
| 20260503035809 | 38 | 242 | 0.9 | 0.9 | 0.00 | 0.00 | 0.00 | 83 | 1018.8 |
| 20260503035306 | 38 | 241 | 0.9 | 0.9 | 0.00 | 0.00 | 0.00 | 83 | 1018.7 |
| 20260503034803 | 38 | 242 | 0.9 | 0.9 | 0.00 | 0.00 | 0.00 | 83 | 1018.8 |
| 20260503034300 | 38 | 241 | 0.9 | 1.7 | 0.00 | 0.00 | 0.00 | 83 | 1019.0 |
| 20260503033758 | 38 | 242 | 1.7 | 1.7 | 0.00 | 0.00 | 0.00 | 83 | 1018.8 |
| 20260503033255 | 38 | 258 | 0.9 | 1.7 | 0.00 | 0.00 | 0.00 | 83 | 1018.9 |
| 20260503032753 | 38 | 270 | 1.7 | 1.7 | 0.00 | 0.00 | 0.00 | 83 | 1018.9 |
| 20260503032252 | 38 | 241 | 0.0 | 0.0 | 0.00 | 0.00 | 0.00 | 83 | 1018.8 |
| 20260503031748 | 38 | 241 | 0.0 | 0.0 | 0.00 | 0.00 | 0.00 | 82 | 1019.0 |
| 20260503031246 | 38 | 241 | 0.0 | 0.9 | 0.00 | 0.00 | 0.00 | 82 | 1018.9 |
| 20260503030742 | 38 | 241 | 0.9 | 0.9 | 0.00 | 0.00 | 0.00 | 82 | 1018.7 |
| 20260503030239 | 38 | 241 | 0.0 | 0.0 | 0.00 | 0.00 | 0.00 | 82 | 1018.8 |
| 20260503025736 | 38 | 241 | 0.9 | 0.9 | 0.00 | 0.00 | 0.00 | 81 | 1018.9 |
| 20260503025233 | 38 | 258 | 0.9 | 1.7 | 0.00 | 0.00 | 0.00 | 81 | 1019.0 |
| 20260503024730 | 38 | 241 | 0.0 | 0.9 | 0.00 | 0.00 | 0.00 | 80 | 1018.8 |
| 20260503024227 | 38 | 242 | 0.9 | 0.9 | 0.00 | 0.00 | 0.00 | 80 | 1018.9 |
| 20260503023724 | 38 | 241 | 0.9 | 1.7 | 0.00 | 0.00 | 0.00 | 80 | 1018.8 |
| 20260503023221 | 38 | 271 | 1.7 | 1.7 | 0.00 | 0.00 | 0.00 | 80 | 1018.9 |
| 20260503022717 | 38 | 265 | 2.6 | 2.6 | 0.00 | 0.00 | 0.00 | 79 | 1019.0 |
| 20260503022216 | 39 | 329 | 2.6 | 2.6 | 0.00 | 0.00 | 0.00 | 78 | 1019.1 |
| 20260503021713 | 39 | 268 | 2.6 | 2.6 | 0.00 | 0.00 | 0.00 | 78 | 1019.0 |
| 20260503021209 | 39 | 311 | 1.7 | 2.6 | 0.00 | 0.00 | 0.00 | 77 | 1019.0 |
| 20260503020707 | 39 | 244 | 2.6 | 2.6 | 0.00 | 0.00 | 0.00 | 77 | 1019.0 |
| 20260503020204 | 39 | 308 | 2.6 | 2.6 | 0.00 | 0.00 | 0.00 | 77 | 1019.1 |
| 20260503015701 | 39 | 18 | 3.5 | 4.3 | 0.00 | 0.00 | 0.00 | 77 | 1019.0 |
| 20260503015158 | 39 | 1 | 4.3 | 5.2 | 0.00 | 0.00 | 0.00 | 76 | 1019.0 |
| 20260503014654 | 39 | 348 | 6.1 | 7.0 | 0.00 | 0.00 | 0.00 | 77 | 1018.8 |
| 20260503014152 | 39 | 304 | 2.6 | 2.6 | 0.00 | 0.00 | 0.00 | 77 | 1018.8 |
| 20260503013649 | 39 | 15 | 0.9 | 2.6 | 0.00 | 0.00 | 0.00 | 77 | 1018.8 |
| 20260503013147 | 39 | 297 | 1.7 | 1.7 | 0.00 | 0.00 | 0.00 | 80 | 1018.7 |
| 20260503012644 | 39 | 10 | 2.6 | 4.3 | 0.00 | 0.00 | 0.00 | 80 | 1019.0 |
| 20260503012140 | 39 | 307 | 2.6 | 2.6 | 0.00 | 0.00 | 0.00 | 80 | 1018.9 |
| 20260503011637 | 40 | 340 | 3.5 | 5.2 | 0.00 | 0.00 | 0.00 | 80 | 1018.9 |
| 20260503011134 | 40 | 256 | 0.9 | 1.7 | 0.00 | 0.00 | 0.00 | 79 | 1018.9 |
| 20260503010630 | 40 | 244 | 0.9 | 1.7 | 0.00 | 0.00 | 0.00 | 78 | 1018.7 |
| 20260503010128 | 40 | 272 | 2.6 | 4.3 | 0.00 | 0.00 | 0.00 | 78 | 1018.6 |
| 20260503005625 | 40 | 304 | 2.6 | 2.6 | 0.00 | 0.00 | 0.00 | 78 | 1018.5 |
| 20260503005122 | 40 | 245 | 0.9 | 0.9 | 0.00 | 0.00 | 0.00 | 77 | 1018.6 |
| 20260503004618 | 40 | 302 | 1.7 | 1.7 | 0.00 | 0.00 | 0.00 | 77 | 1018.7 |
| 20260503004117 | 40 | 281 | 3.5 | 4.3 | 0.00 | 0.00 | 0.00 | 77 | 1018.6 |
| 20260503003613 | 40 | 335 | 3.5 | 4.3 | 0.00 | 0.00 | 0.00 | 77 | 1018.1 |
| 20260503003110 | 40 | 339 | 4.3 | 6.1 | 0.00 | 0.00 | 0.00 | 77 | 1018.4 |
| 20260503002607 | 40 | 331 | 2.6 | 2.6 | 0.00 | 0.00 | 0.00 | 77 | 1018.4 |
| 20260503002104 | 40 | 65 | 1.7 | 2.6 | 0.00 | 0.00 | 0.00 | 77 | 1018.2 |
| 20260503001600 | 41 | 5 | 6.1 | 7.0 | 0.00 | 0.00 | 0.00 | 77 | 1018.0 |
| 20260503001057 | 41 | 2 | 4.3 | 6.1 | 0.00 | 0.00 | 0.00 | 77 | 1018.1 |
| 20260503000555 | 41 | 40 | 3.5 | 4.3 | 0.00 | 0.00 | 0.00 | 76 | 1018.1 |
| 20260503000052 | 41 | 326 | 2.6 | 2.6 | 0.00 | 0.00 | 0.00 | 75 | 1017.8 |
| 20260502235548 | 41 | 353 | 4.3 | 4.3 | 0.00 | 0.00 | 0.00 | 75 | 1017.9 |
| 20260502235046 | 41 | 12 | 2.6 | 2.6 | 0.00 | 0.00 | 0.00 | 75 | 1017.9 |
| 20260502234542 | 41 | 264 | 1.7 | 2.6 | 0.00 | 0.00 | 0.00 | 74 | 1017.9 |
| 20260502234040 | 42 | 46 | 5.2 | 7.0 | 0.00 | 0.00 | 0.00 | 73 | 1017.7 |
| 20260502233540 | 42 | 327 | 8.7 | 11.3 | 0.00 | 0.00 | 0.00 | 74 | 1017.8 |
| 20260502233037 | 42 | 6 | 5.2 | 6.1 | 0.00 | 0.00 | 0.00 | 73 | 1017.8 |
| 20260502232533 | 42 | 335 | 5.2 | 7.8 | 0.00 | 0.00 | 0.00 | 73 | 1017.5 |
| 20260502232031 | 43 | 358 | 3.5 | 4.3 | 0.00 | 0.00 | 0.00 | 74 | 1017.6 |
| 20260502231528 | 43 | 356 | 4.3 | 6.1 | 0.00 | 0.00 | 0.00 | 74 | 1017.5 |
| 20260502231025 | 43 | 341 | 3.5 | 4.3 | 0.00 | 0.00 | 0.00 | 72 | 1017.4 |
| 20260502230524 | 43 | 310 | 4.3 | 6.1 | 0.00 | 0.00 | 0.00 | 71 | 1017.3 |
| 20260502230022 | 44 | 282 | 6.1 | 8.7 | 0.00 | 0.00 | 0.00 | 69 | 1017.4 |
| 20260502225517 | 44 | 1 | 3.5 | 4.3 | 0.00 | 0.00 | 0.00 | 69 | 1017.1 |
| 20260502225014 | 44 | 350 | 7.0 | 9.6 | 0.00 | 0.00 | 0.00 | 70 | 1017.1 |
| 20260502224510 | 44 | 87 | 3.5 | 4.3 | 0.00 | 0.00 | 0.00 | 70 | 1017.1 |
| 20260502224008 | 44 | 60 | 3.5 | 5.2 | 0.00 | 0.00 | 0.00 | 70 | 1017.1 |
| 20260502223505 | 44 | 24 | 3.5 | 4.3 | 0.00 | 0.00 | 0.00 | 70 | 1017.1 |
| 20260502223003 | 44 | 70 | 1.7 | 4.3 | 0.00 | 0.00 | 0.00 | 70 | 1017.5 |
| 20260502222500 | 44 | 345 | 4.3 | 5.2 | 0.00 | 0.00 | 0.00 | 69 | 1017.0 |
| 20260502221956 | 44 | 332 | 4.3 | 4.3 | 0.00 | 0.00 | 0.00 | 69 | 1017.1 |
| 20260502221452 | 44 | 25 | 7.0 | 7.8 | 0.00 | 0.00 | 0.00 | 68 | 1017.1 |
| 20260502220949 | 45 | 16 | 3.5 | 5.2 | 0.00 | 0.00 | 0.00 | 65 | 1017.0 |
| 20260502220445 | 46 | 315 | 6.1 | 7.8 | 0.00 | 0.00 | 0.00 | 59 | 1016.7 |
| 20260502215942 | 46 | 353 | 4.3 | 6.1 | 0.00 | 0.00 | 0.00 | 56 | 1016.7 |
| 20260502215439 | 46 | 240 | 2.6 | 2.6 | 0.00 | 0.00 | 0.00 | 57 | 1016.8 |
| 20260502214936 | 46 | 260 | 2.6 | 2.6 | 0.00 | 0.00 | 0.00 | 56 | 1016.7 |
| 20260502214433 | 47 | 301 | 5.2 | 6.1 | 0.00 | 0.00 | 0.00 | 56 | 1016.6 |
| 20260502213930 | 46 | 281 | 5.2 | 6.1 | 0.00 | 0.00 | 0.00 | 57 | 1016.6 |
| 20260502213427 | 47 | 345 | 4.3 | 5.2 | 0.00 | 0.00 | 0.00 | 56 | 1016.6 |
| 20260502212926 | 47 | 358 | 4.3 | 7.0 | 0.00 | 0.00 | 0.00 | 56 | 1016.7 |
| 20260502212424 | 47 | 326 | 6.1 | 7.0 | 0.00 | 0.00 | 0.00 | 54 | 1016.5 |
| 20260502211921 | 47 | 324 | 4.3 | 5.2 | 0.00 | 0.00 | 0.00 | 55 | 1016.5 |
| 20260502211416 | 47 | 239 | 0.9 | 1.7 | 0.00 | 0.00 | 0.00 | 55 | 1016.1 |
| 20260502210914 | 47 | 340 | 4.3 | 6.1 | 0.00 | 0.00 | 0.00 | 57 | 1016.3 |
| 20260502210411 | 47 | 8 | 4.3 | 6.1 | 0.00 | 0.00 | 0.00 | 56 | 1016.5 |
| 20260502205908 | 47 | 251 | 3.5 | 4.3 | 0.00 | 0.00 | 0.00 | 54 | 1016.3 |
| 20260502205404 | 47 | 331 | 2.6 | 6.1 | 0.00 | 0.00 | 0.00 | 53 | 1016.4 |
| 20260502204901 | 47 | 12 | 7.8 | 8.7 | 0.00 | 0.00 | 0.00 | 52 | 1016.3 |
| 20260502204358 | 47 | 336 | 6.1 | 7.8 | 0.00 | 0.00 | 0.00 | 52 | 1016.4 |
| 20260502203856 | 48 | 11 | 4.3 | 7.0 | 0.00 | 0.00 | 0.00 | 53 | 1016.1 |
| 20260502203354 | 47 | 5 | 6.1 | 7.0 | 0.00 | 0.00 | 0.00 | 50 | 1016.5 |
| 20260502202849 | 48 | 317 | 3.5 | 4.3 | 0.00 | 0.00 | 0.00 | 51 | 1016.4 |
| 20260502202346 | 47 | 284 | 1.7 | 1.7 | 0.00 | 0.00 | 0.00 | 53 | 1016.4 |
| 20260502201844 | 48 | 341 | 4.3 | 6.1 | 0.00 | 0.00 | 0.00 | 54 | 1016.5 |
| 20260502201340 | 48 | 277 | 3.5 | 4.3 | 0.00 | 0.00 | 0.00 | 55 | 1016.6 |
| 20260502200836 | 48 | 345 | 2.6 | 4.3 | 0.00 | 0.00 | 0.00 | 55 | 1016.6 |
| 20260502200332 | 48 | 354 | 3.5 | 4.3 | 0.00 | 0.00 | 0.00 | 54 | 1016.4 |
| 20260502195831 | 48 | 280 | 2.6 | 4.3 | 0.00 | 0.00 | 0.00 | 53 | 1016.7 |
| 20260502195327 | 49 | 333 | 5.2 | 6.1 | 0.00 | 0.00 | 0.00 | 52 | 1016.5 |
| 20260502194824 | 48 | 275 | 3.5 | 5.2 | 0.00 | 0.00 | 0.00 | 53 | 1016.6 |
| 20260502194321 | 49 | 332 | 7.8 | 9.6 | 0.00 | 0.00 | 0.00 | 51 | 1016.8 |
| 20260502193816 | 48 | 3 | 3.5 | 4.3 | 0.00 | 0.00 | 0.00 | 53 | 1016.6 |
| 20260502193314 | 47 | 328 | 4.3 | 6.1 | 0.00 | 0.00 | 0.00 | 53 | 1016.9 |
| 20260502192814 | 47 | 347 | 4.3 | 5.2 | 0.00 | 0.00 | 0.00 | 52 | 1016.7 |
| 20260502192312 | 47 | 239 | 2.6 | 2.6 | 0.00 | 0.00 | 0.00 | 53 | 1016.8 |
| 20260502191809 | 47 | 328 | 5.2 | 7.0 | 0.00 | 0.00 | 0.00 | 53 | 1017.0 |
| 20260502191307 | 47 | 338 | 5.2 | 6.1 | 0.00 | 0.00 | 0.00 | 52 | 1016.9 |
| 20260502190804 | 47 | 327 | 3.5 | 5.2 | 0.00 | 0.00 | 0.00 | 54 | 1016.9 |
| 20260502190301 | 47 | 266 | 6.1 | 8.7 | 0.00 | 0.00 | 0.00 | 52 | 1017.1 |
| 20260502185756 | 48 | 288 | 4.3 | 6.1 | 0.00 | 0.00 | 0.00 | 51 | 1016.9 |
| 20260502185252 | 48 | 343 | 4.3 | 5.2 | 0.00 | 0.00 | 0.00 | 51 | 1017.1 |